Hartford, CT

7:42 AM EST on November 18, 2017 (GMT -0500)
Hartford-brainard

Weather History for KHFD - November, 2012

Change the Weather History Date:

Sunday, November 4, 2012

  Actual Average Record
Temperature  
Mean Temperature 44 °F -  
Max Temperature 52 °F 57 °F 77 °F (1990)
Min Temperature 35 °F 38 °F 18 °F (1980)
Degree Days  
Heating Degree Days 22    
Moisture  
Dew Point 29 °F    
Average Humidity 58    
Maximum Humidity 76    
Minimum Humidity 43    
Precipitation  
Precipitation 0.00 in - - ()
Sea Level Pressure  
Sea Level Pressure 29.92 in    
Wind  
Wind Speed 5 mph (NW)    
Max Wind Speed 14 mph    
Max Gust Speed 18 mph    
Visibility 10 miles    
Events      
Averages and records for this station are not official NWS values.
T = Trace of Precipitation, MM = Missing Value Source: NWS Daily Summary

Daily Weather History Graph

Daily Weather History Graph

Search for Another Location

Airport or City:

Trip Planner

Search our weather history database for the weather conditions in past years. The results will help you decide how hot, cold, wet, or windy it might be!

Date:

Astronomy

Nov. 04, 2012 Rise Set
Actual Time 6:26 AM EST 4:40 PM EST
Civil Twilight 5:57 AM EST 5:09 PM EST
Nautical Twilight 5:24 AM EST 5:42 PM EST
Astronomical Twilight 4:52 AM EST 6:15 PM EST
Moon 9:15 PM EST (11/4) 11:09 AM EST (11/4)
Length of Visible Light 11h 12m
Length of Day
10h 13m
Waning Gibbous, 72% of the Moon is Illuminated
Nov 4
Waning Gibbous
Nov 6
Last Quarter
Nov 13
New
Nov 20
First Quarter
Nov 28
Full

Hourly Weather History & Observations

Time (EST) Temp. Windchill Dew Point Humidity Pressure Visibility Wind Dir Wind Speed Gust Speed Precip Events Conditions
12:53 AM 39.9 °F 37.8 °F 28.0 °F 63% 29.89 in 10.0 mi WNW 3.5 mph - N/A   Clear
1:53 AM 39.9 °F 33.9 °F 28.0 °F 63% 29.89 in 10.0 mi NW 9.2 mph - N/A   Clear
1:53 AM 39.0 °F - 28.0 °F 65% 29.90 in 10.0 mi Calm Calm - N/A   Clear
2:53 AM 37.9 °F 35.5 °F 28.9 °F 70% 29.89 in 10.0 mi West 3.5 mph - N/A   Clear
3:53 AM 37.9 °F 35.5 °F 28.9 °F 70% 29.89 in 10.0 mi WSW 3.5 mph - N/A   Clear
4:53 AM 37.0 °F 34.5 °F 28.9 °F 73% 29.91 in 10.0 mi West 3.5 mph - N/A   Clear
5:53 AM 35.1 °F - 28.0 °F 76% 29.91 in 10.0 mi Calm Calm - N/A   Clear
6:53 AM 35.1 °F - 28.0 °F 76% 29.93 in 10.0 mi Calm Calm - N/A   Clear
7:53 AM 42.1 °F 37.7 °F 28.9 °F 60% 29.94 in 10.0 mi NNW 6.9 mph - N/A   Clear
8:53 AM 44.1 °F 40.8 °F 30.0 °F 58% 29.95 in 10.0 mi NNW 5.8 mph - N/A   Clear
9:53 AM 46.0 °F 44.8 °F 30.0 °F 54% 29.94 in 10.0 mi North 3.5 mph - N/A   Clear
10:53 AM 48.9 °F - 30.0 °F 48% 29.93 in 10.0 mi North 4.6 mph - N/A   Clear
11:53 AM 50.0 °F - 30.9 °F 48% 29.91 in 10.0 mi Variable 6.9 mph - N/A   Clear
12:53 PM 51.1 °F - 30.0 °F 44% 29.90 in 10.0 mi Variable 4.6 mph - N/A   Clear
1:53 PM 52.0 °F - 30.0 °F 43% 29.88 in 10.0 mi NNW 6.9 mph - N/A   Clear
2:53 PM 51.1 °F - 30.0 °F 44% 29.89 in 10.0 mi NNW 9.2 mph - N/A   Clear
3:53 PM 48.0 °F - 28.0 °F 46% 29.91 in 10.0 mi NNW 13.8 mph 18.4 mph N/A   Clear
4:53 PM 44.1 °F 38.1 °F 28.0 °F 53% 29.94 in 10.0 mi NNW 11.5 mph 18.4 mph N/A   Clear
5:53 PM 42.1 °F 38.4 °F 28.0 °F 58% 29.95 in 10.0 mi NNW 5.8 mph - N/A   Clear
6:53 PM 42.1 °F 38.4 °F 27.0 °F 55% 29.96 in 10.0 mi NW 5.8 mph - N/A   Partly Cloudy
7:53 PM 42.1 °F 38.4 °F 28.0 °F 58% 29.96 in 10.0 mi NW 5.8 mph - N/A   Overcast
8:53 PM 43.0 °F 38.8 °F 27.0 °F 53% 29.96 in 10.0 mi NW 6.9 mph - N/A   Overcast
9:53 PM 42.1 °F 37.7 °F 27.0 °F 55% 29.96 in 10.0 mi NW 6.9 mph - N/A   Overcast
10:53 PM 42.1 °F 37.1 °F 27.0 °F 55% 29.96 in 10.0 mi NW 8.1 mph - N/A   Overcast